Muskogee, OK

9:11 AM CDT on April 26, 2017 (GMT -0500)
Davis

Weather History for KMKO - October, 2013

Change the Weather History Date:

Tuesday, October 15, 2013

  Actual Average Record
Temperature  
Mean Temperature 60 °F -  
Max Temperature 66 °F 72 °F 93 °F (2015)
Min Temperature 54 °F 47 °F 34 °F (2002)
Degree Days  
Heating Degree Days 5    
Growing Degree Days 10 (Base 50)    
Moisture  
Dew Point 58 °F    
Average Humidity 89    
Maximum Humidity 100    
Minimum Humidity 64    
Precipitation  
Precipitation 0.55 in - - ()
Sea Level Pressure  
Sea Level Pressure 29.98 in    
Wind  
Wind Speed 10 mph (NW)    
Max Wind Speed 18 mph    
Max Gust Speed 24 mph    
Visibility 8 miles    
Events Rain , Thunderstorm    
Averages and records for this station are not official NWS values.
T = Trace of Precipitation, MM = Missing Value Source: NWS Daily Summary

Daily Weather History Graph

Daily Weather History Graph

Search for Another Location

Airport or City:

Trip Planner

Search our weather history database for the weather conditions in past years. The results will help you decide how hot, cold, wet, or windy it might be!

Date:

Astronomy

Oct. 15, 2013 Rise Set
Actual Time 7:28 AM CDT 6:45 PM CDT
Civil Twilight 7:02 AM CDT 7:11 PM CDT
Nautical Twilight 6:32 AM CDT 7:40 PM CDT
Astronomical Twilight 6:03 AM CDT 8:10 PM CDT
Moon 4:45 PM CDT (10/15) 3:58 AM CDT (10/15)
Length of Visible Light 12h 08m
Length of Day
11h 17m
Waxing Gibbous, 88% of the Moon is Illuminated
Oct 15
Waxing Gibbous
Oct 18
Full
Oct 26
Last Quarter
Nov 3
New
Nov 9
First Quarter

Hourly Weather History & Observations

Time (CDT) Temp. Dew Point Humidity Pressure Visibility Wind Dir Wind Speed Gust Speed Precip Events Conditions
12:01 AM 64.4 °F 62.6 °F 94% 29.96 in 6.0 mi SE 12.7 mph - 0.00 in Rain Light Rain
12:53 AM 64.0 °F 64.0 °F 100% 29.94 in 6.0 mi SSE 8.1 mph - 0.01 in Rain Light Rain
1:44 AM 64.4 °F 64.4 °F 100% 29.93 in 5.0 mi SSE 10.4 mph - 0.00 in   Overcast
1:51 AM 64.4 °F 64.4 °F 100% 29.93 in 4.0 mi SSE 10.4 mph - 0.00 in Rain Light Rain
1:53 AM 64.9 °F 64.0 °F 97% 29.92 in 4.0 mi SSE 12.7 mph - 0.00 in Rain Light Rain
2:53 AM 64.9 °F 64.0 °F 97% 29.91 in 5.0 mi SSE 6.9 mph - 0.00 in   Overcast
3:45 AM 64.4 °F 64.4 °F 100% 29.91 in 5.0 mi SSE 5.8 mph - 0.00 in Rain , Thunderstorm Light Rain
3:51 AM 64.4 °F 64.4 °F 100% 29.92 in 1.5 mi Variable 3.5 mph - 0.15 in Rain , Thunderstorm Heavy Thunderstorms and Rain
3:53 AM 64.9 °F 64.0 °F 97% 29.91 in 1.2 mi Variable 3.5 mph - 0.17 in Rain , Thunderstorm Heavy Thunderstorms and Rain
4:01 AM 64.4 °F 64.4 °F 100% 29.93 in 2.0 mi Variable 5.8 mph - 0.02 in Rain , Thunderstorm Heavy Thunderstorms and Rain
4:15 AM 66.2 °F 64.4 °F 94% 29.93 in 4.0 mi SSW 10.4 mph - 0.05 in Rain , Thunderstorm Rain
4:25 AM 66.2 °F 64.4 °F 94% 29.93 in 5.0 mi SW 8.1 mph - 0.07 in Rain , Thunderstorm Rain
4:33 AM 64.4 °F 62.6 °F 94% 29.92 in 6.0 mi SSW 6.9 mph - 0.09 in Rain , Thunderstorm Rain
4:43 AM 64.4 °F 62.6 °F 94% 29.92 in 8.0 mi SSW 5.8 mph - 0.11 in Rain Rain
4:53 AM 64.9 °F 63.0 °F 93% 29.91 in 9.0 mi South 5.8 mph - 0.12 in Rain Rain
5:04 AM 64.4 °F 62.6 °F 94% 29.92 in 6.0 mi SSW 5.8 mph - 0.03 in Rain Rain
5:53 AM 64.0 °F 63.0 °F 96% 29.91 in 4.0 mi SW 5.8 mph - 0.17 in Rain Heavy Rain
6:53 AM 64.0 °F 63.0 °F 96% 29.93 in 10.0 mi West 6.9 mph - 0.01 in   Mostly Cloudy
7:06 AM 64.4 °F 62.6 °F 94% 29.94 in 10.0 mi West 6.9 mph - 0.00 in Rain Light Rain
7:25 AM 64.4 °F 62.6 °F 94% 29.95 in 10.0 mi West 8.1 mph - 0.00 in   Overcast
7:48 AM 62.6 °F 60.8 °F 94% 29.95 in 10.0 mi North 16.1 mph - 0.00 in   Overcast
7:53 AM 62.1 °F 60.1 °F 93% 29.95 in 10.0 mi NNW 16.1 mph - 0.00 in   Overcast
8:03 AM 62.6 °F 59.0 °F 88% 29.98 in 10.0 mi NNW 12.7 mph - N/A   Overcast
8:53 AM 61.0 °F 57.9 °F 90% 30.00 in 10.0 mi North 13.8 mph - N/A   Overcast
9:37 AM 60.8 °F 57.2 °F 88% 30.01 in 10.0 mi North 17.3 mph - N/A   Overcast
9:53 AM 59.0 °F 57.0 °F 93% 30.01 in 8.0 mi NNW 15.0 mph 24.2 mph N/A   Overcast
10:03 AM 57.2 °F 55.4 °F 94% 30.02 in 5.0 mi NNW 18.4 mph 21.9 mph N/A   Overcast
10:39 AM 57.2 °F 53.6 °F 88% 30.04 in 10.0 mi NNW 16.1 mph - N/A   Overcast
10:53 AM 57.9 °F 54.0 °F 87% 30.04 in 10.0 mi NNW 16.1 mph - N/A   Overcast
11:11 AM 57.2 °F 51.8 °F 82% 30.04 in 10.0 mi North 17.3 mph - N/A   Overcast
11:53 AM 57.9 °F 51.1 °F 78% 30.06 in 10.0 mi NNW 11.5 mph - N/A   Overcast
12:53 PM 59.0 °F 50.0 °F 72% 30.05 in 10.0 mi NNW 12.7 mph - N/A   Overcast
1:11 PM 59.0 °F 48.2 °F 67% 30.06 in 10.0 mi North 13.8 mph - N/A   Overcast
1:53 PM 59.0 °F 48.0 °F 67% 30.03 in 10.0 mi NNW 15.0 mph - N/A   Overcast
2:53 PM 59.0 °F 46.9 °F 64% 30.02 in 10.0 mi North 11.5 mph 17.3 mph N/A   Overcast
3:53 PM 55.0 °F 50.0 °F 83% 30.03 in 10.0 mi NW 5.8 mph - 0.00 in Rain Light Rain
4:53 PM 55.0 °F 51.1 °F 86% 30.03 in 10.0 mi NW 3.5 mph - 0.06 in   Overcast
5:53 PM 55.9 °F 51.1 °F 84% 30.03 in 10.0 mi North 5.8 mph - 0.01 in   Overcast
6:53 PM 55.0 °F 51.1 °F 86% 30.05 in 10.0 mi NNW 4.6 mph - N/A   Overcast
7:53 PM 55.0 °F 50.0 °F 83% 30.06 in 10.0 mi NNW 4.6 mph - 0.00 in   Overcast
8:53 PM 55.0 °F 50.0 °F 83% 30.07 in 10.0 mi NNW 5.8 mph - N/A   Overcast
9:53 PM 55.0 °F 50.0 °F 83% 30.09 in 10.0 mi Calm Calm - N/A   Overcast
10:53 PM 54.0 °F 50.0 °F 86% 30.11 in 10.0 mi WNW 4.6 mph - N/A   Scattered Clouds
11:53 PM 54.0 °F 50.0 °F 86% 30.09 in 10.0 mi Calm Calm - N/A   Mostly Cloudy